Multibeam Report for NBP1005


Ship Name: Nathaniel B. Palmer
Chief Scientist: Yager, Patricia
University of Georgia
Source Organization: Marine Geoscience Data System (MGDS)
Start Date: 2010-11-26
End Date: 2011-01-16


View ISO Metadata

Visit the full NCEI Bathymetry Viewer


Multibeam Bathymetry

Cruise Details

Project: ASPIRE (Amundsen Sea Polynya International Research Expedition)
Instrument: Kongsberg EM120

Data Quality

Number of Files: 888
Number of Records: 651519
BATHYMETRY DATA Quantity Percentage
Number of Beams 124440129 100%
Number of Good Beams 111324664 89.46%
Number of Zero Beams 13115465 10.54%
Number of Flagged Beams 0 0%
AMPLITUDE DATA Quantity Percentage
Number of Beams 124440129 100%
Number of Good Beams 111324664 89.46%
Number of Zero Beams 13115465 10.54%
Number of Flagged Beams 0 0%
SIDESCAN DATA Quantity Percentage
Number of Pixels 667155456 100%
Number of Good Pixels 469586192 70.39%
Number of Zero Pixels 0 0%
Number of Flagged Pixels 197569264 29.61%

Navigation Totals

Total Time: 819.1136 hours
Total Track Length: 9509.5232 km
Average Speed: 11.61 km/hr (6.2689 knots)

Cruise Bounds

Northern Extent: -55.138924
Southern Extent: -74.928566
Western Extent: -158.83754
Eastern Extent: -65.03841

Limits

Minimum Sonar Depth 5.56 Maximum Sonar Depth 8.59
Minimum Altitude 0 Maximum Altitude 8356
Minimum Depth 114.29 Maximum Depth 9197.96
Minimum Amplitude 0 Maximum Amplitude 26.5
Minimum Sidescan 0 Maximum Sidescan 63

File Information

Full Resolution Bathymetry as collected (raw): 885

Files File Size Description
0000_20101128_071737_raw.all.mb56.gz 1.32MB Simrad multibeam vendor format
0001_20101129_141047_raw.all.mb56.gz 8.34MB Simrad multibeam vendor format
0002_20101129_151047_raw.all.mb56.gz 8.35MB Simrad multibeam vendor format
0003_20101129_161047_raw.all.mb56.gz 8.44MB Simrad multibeam vendor format
0004_20101129_171047_raw.all.mb56.gz 8.43MB Simrad multibeam vendor format
0005_20101129_181047_raw.all.mb56.gz 8.49MB Simrad multibeam vendor format
0006_20101129_191047_raw.all.mb56.gz 8.30MB Simrad multibeam vendor format
0007_20101129_201047_raw.all.mb56.gz 8.42MB Simrad multibeam vendor format
0008_20101129_211047_raw.all.mb56.gz 8.31MB Simrad multibeam vendor format
0009_20101129_221047_raw.all.mb56.gz 8.28MB Simrad multibeam vendor format
0010_20101129_231047_raw.all.mb56.gz 8.31MB Simrad multibeam vendor format
0011_20101130_001047_raw.all.mb56.gz 8.33MB Simrad multibeam vendor format
0012_20101130_011047_raw.all.mb56.gz 8.37MB Simrad multibeam vendor format
0013_20101130_021047_raw.all.mb56.gz 8.08MB Simrad multibeam vendor format
0014_20101130_031047_raw.all.mb56.gz 8.26MB Simrad multibeam vendor format
0015_20101130_041047_raw.all.mb56.gz 8.22MB Simrad multibeam vendor format
0016_20101130_051047_raw.all.mb56.gz 8.27MB Simrad multibeam vendor format
0017_20101130_061047_raw.all.mb56.gz 8.07MB Simrad multibeam vendor format
0018_20101130_071047_raw.all.mb56.gz 8.19MB Simrad multibeam vendor format
0019_20101130_081047_raw.all.mb56.gz 8.15MB Simrad multibeam vendor format
0020_20101130_091046_raw.all.mb56.gz 8.18MB Simrad multibeam vendor format
0021_20101130_101046_raw.all.mb56.gz 8.20MB Simrad multibeam vendor format
0022_20101130_111046_raw.all.mb56.gz 8.34MB Simrad multibeam vendor format
0023_20101130_121046_raw.all.mb56.gz 6.98MB Simrad multibeam vendor format
0024_20101130_130017_raw.all.mb56.gz 8.72MB Simrad multibeam vendor format
0025_20101130_140017_raw.all.mb56.gz 8.74MB Simrad multibeam vendor format
0026_20101130_150017_raw.all.mb56.gz 8.86MB Simrad multibeam vendor format
0027_20101130_160017_raw.all.mb56.gz 8.84MB Simrad multibeam vendor format
0028_20101130_170017_raw.all.mb56.gz 8.93MB Simrad multibeam vendor format
0029_20101130_180017_raw.all.mb56.gz 8.86MB Simrad multibeam vendor format
0030_20101130_190017_raw.all.mb56.gz 8.34MB Simrad multibeam vendor format
0031_20101130_200017_raw.all.mb56.gz 8.92MB Simrad multibeam vendor format
0032_20101130_210017_raw.all.mb56.gz 9.12MB Simrad multibeam vendor format
0033_20101130_220017_raw.all.mb56.gz 8.93MB Simrad multibeam vendor format
0034_20101130_230017_raw.all.mb56.gz 9.09MB Simrad multibeam vendor format
0035_20101201_000017_raw.all.mb56.gz 8.96MB Simrad multibeam vendor format
0036_20101201_010017_raw.all.mb56.gz 9.10MB Simrad multibeam vendor format
0037_20101201_020017_raw.all.mb56.gz 9.05MB Simrad multibeam vendor format
0038_20101201_030017_raw.all.mb56.gz 8.96MB Simrad multibeam vendor format
0039_20101201_040017_raw.all.mb56.gz 8.87MB Simrad multibeam vendor format
0040_20101201_050017_raw.all.mb56.gz 8.88MB Simrad multibeam vendor format
0041_20101201_060017_raw.all.mb56.gz 8.95MB Simrad multibeam vendor format
0042_20101201_070017_raw.all.mb56.gz 8.99MB Simrad multibeam vendor format
0043_20101201_080017_raw.all.mb56.gz 8.99MB Simrad multibeam vendor format
0044_20101201_090016_raw.all.mb56.gz 8.82MB Simrad multibeam vendor format
0045_20101201_100016_raw.all.mb56.gz 8.55MB Simrad multibeam vendor format
0046_20101201_110016_raw.all.mb56.gz 7.11MB Simrad multibeam vendor format
0047_20101201_114935_raw.all.mb56.gz 8.88MB Simrad multibeam vendor format
0048_20101201_124935_raw.all.mb56.gz 8.77MB Simrad multibeam vendor format
0049_20101201_134936_raw.all.mb56.gz 9.26MB Simrad multibeam vendor format
0050_20101201_144936_raw.all.mb56.gz 13.24MB Simrad multibeam vendor format
0051_20101201_154936_raw.all.mb56.gz 16.21MB Simrad multibeam vendor format
0052_20101201_164936_raw.all.mb56.gz 11.37MB Simrad multibeam vendor format
0053_20101201_174936_raw.all.mb56.gz 18.74MB Simrad multibeam vendor format
0054_20101201_184937_raw.all.mb56.gz 18.28MB Simrad multibeam vendor format
0055_20101201_194937_raw.all.mb56.gz 16.59MB Simrad multibeam vendor format
0056_20101201_204937_raw.all.mb56.gz 15.52MB Simrad multibeam vendor format
0057_20101201_214937_raw.all.mb56.gz 14.88MB Simrad multibeam vendor format
0058_20101201_224937_raw.all.mb56.gz 11.75MB Simrad multibeam vendor format
0059_20101201_234938_raw.all.mb56.gz 9.62MB Simrad multibeam vendor format
0060_20101202_004938_raw.all.mb56.gz 9.87MB Simrad multibeam vendor format
0061_20101202_014938_raw.all.mb56.gz 9.93MB Simrad multibeam vendor format
0062_20101202_024938_raw.all.mb56.gz 11.02MB Simrad multibeam vendor format
0063_20101202_034938_raw.all.mb56.gz 12.83MB Simrad multibeam vendor format
0064_20101202_044938_raw.all.mb56.gz 13.85MB Simrad multibeam vendor format
0065_20101202_054938_raw.all.mb56.gz 14.12MB Simrad multibeam vendor format
0066_20101202_064938_raw.all.mb56.gz 13.24MB Simrad multibeam vendor format
0067_20101202_074938_raw.all.mb56.gz 10.93MB Simrad multibeam vendor format
0068_20101202_084938_raw.all.mb56.gz 10.02MB Simrad multibeam vendor format
0069_20101202_094938_raw.all.mb56.gz 9.24MB Simrad multibeam vendor format
0070_20101202_104938_raw.all.mb56.gz 11.51MB Simrad multibeam vendor format
0071_20101202_114938_raw.all.mb56.gz 11.89MB Simrad multibeam vendor format
0072_20101202_124937_raw.all.mb56.gz 12.92MB Simrad multibeam vendor format
0073_20101202_134937_raw.all.mb56.gz 14.43MB Simrad multibeam vendor format
0074_20101202_144937_raw.all.mb56.gz 13.98MB Simrad multibeam vendor format
0075_20101202_154937_raw.all.mb56.gz 10.82MB Simrad multibeam vendor format
0076_20101202_164937_raw.all.mb56.gz 6.93MB Simrad multibeam vendor format
0077_20101202_172954_raw.all.mb56.gz 10.11MB Simrad multibeam vendor format
0078_20101202_182954_raw.all.mb56.gz 9.95MB Simrad multibeam vendor format
0079_20101202_192954_raw.all.mb56.gz 10.08MB Simrad multibeam vendor format
0080_20101202_202954_raw.all.mb56.gz 10.15MB Simrad multibeam vendor format
0081_20101202_212954_raw.all.mb56.gz 10.55MB Simrad multibeam vendor format
0082_20101202_222954_raw.all.mb56.gz 10.51MB Simrad multibeam vendor format
0083_20101202_232954_raw.all.mb56.gz 9.86MB Simrad multibeam vendor format
0084_20101203_002954_raw.all.mb56.gz 9.83MB Simrad multibeam vendor format
0085_20101203_012954_raw.all.mb56.gz 9.65MB Simrad multibeam vendor format
0086_20101203_022954_raw.all.mb56.gz 9.65MB Simrad multibeam vendor format
0087_20101203_032954_raw.all.mb56.gz 12.23MB Simrad multibeam vendor format
0088_20101203_042954_raw.all.mb56.gz 11.79MB Simrad multibeam vendor format
0089_20101203_052954_raw.all.mb56.gz 11.54MB Simrad multibeam vendor format
0090_20101203_062954_raw.all.mb56.gz 11.54MB Simrad multibeam vendor format
0091_20101203_072954_raw.all.mb56.gz 12.97MB Simrad multibeam vendor format
0092_20101203_082954_raw.all.mb56.gz 13.97MB Simrad multibeam vendor format
0093_20101203_092954_raw.all.mb56.gz 14.52MB Simrad multibeam vendor format
0094_20101203_102954_raw.all.mb56.gz 12.35MB Simrad multibeam vendor format
0095_20101203_112954_raw.all.mb56.gz 10.83MB Simrad multibeam vendor format
0096_20101203_122954_raw.all.mb56.gz 9.92MB Simrad multibeam vendor format
0097_20101203_132954_raw.all.mb56.gz 9.68MB Simrad multibeam vendor format
0098_20101203_142954_raw.all.mb56.gz 10.33MB Simrad multibeam vendor format
0099_20101203_152954_raw.all.mb56.gz 11.14MB Simrad multibeam vendor format
0100_20101203_162954_raw.all.mb56.gz 13.87MB Simrad multibeam vendor format
0101_20101203_172954_raw.all.mb56.gz 18.84MB Simrad multibeam vendor format
0102_20101203_182954_raw.all.mb56.gz 19.16MB Simrad multibeam vendor format
0103_20101203_192954_raw.all.mb56.gz 13.80MB Simrad multibeam vendor format
0104_20101203_202953_raw.all.mb56.gz 10.52MB Simrad multibeam vendor format
0105_20101203_212953_raw.all.mb56.gz 10.50MB Simrad multibeam vendor format
0106_20101203_222953_raw.all.mb56.gz 10.54MB Simrad multibeam vendor format
0107_20101203_232953_raw.all.mb56.gz 10.62MB Simrad multibeam vendor format
0108_20101204_002953_raw.all.mb56.gz 10.45MB Simrad multibeam vendor format
0109_20101204_012953_raw.all.mb56.gz 10.45MB Simrad multibeam vendor format
0110_20101204_022953_raw.all.mb56.gz 10.29MB Simrad multibeam vendor format
0111_20101204_032953_raw.all.mb56.gz 10.56MB Simrad multibeam vendor format
0112_20101204_042953_raw.all.mb56.gz 10.33MB Simrad multibeam vendor format
0113_20101204_052953_raw.all.mb56.gz 10.48MB Simrad multibeam vendor format
0114_20101204_062953_raw.all.mb56.gz 10.22MB Simrad multibeam vendor format
0115_20101204_072953_raw.all.mb56.gz 11.74MB Simrad multibeam vendor format
0116_20101204_082953_raw.all.mb56.gz 11.98MB Simrad multibeam vendor format
0117_20101204_092953_raw.all.mb56.gz 11.69MB Simrad multibeam vendor format
0118_20101204_102953_raw.all.mb56.gz 11.73MB Simrad multibeam vendor format
0119_20101204_112953_raw.all.mb56.gz 3.55MB Simrad multibeam vendor format
0120_20101204_115423_raw.all.mb56.gz 11.71MB Simrad multibeam vendor format
0121_20101204_125423_raw.all.mb56.gz 10.70MB Simrad multibeam vendor format
0122_20101204_135423_raw.all.mb56.gz 10.94MB Simrad multibeam vendor format
0123_20101204_145423_raw.all.mb56.gz 10.87MB Simrad multibeam vendor format
0124_20101204_155423_raw.all.mb56.gz 13.75MB Simrad multibeam vendor format
0125_20101204_165423_raw.all.mb56.gz 13.85MB Simrad multibeam vendor format
0126_20101204_175423_raw.all.mb56.gz 15.02MB Simrad multibeam vendor format
0127_20101204_185423_raw.all.mb56.gz 15.69MB Simrad multibeam vendor format
0128_20101204_195423_raw.all.mb56.gz 15.31MB Simrad multibeam vendor format
0129_20101204_205423_raw.all.mb56.gz 20.63MB Simrad multibeam vendor format
0130_20101204_215423_raw.all.mb56.gz 20.99MB Simrad multibeam vendor format
0131_20101204_225423_raw.all.mb56.gz 20.43MB Simrad multibeam vendor format
0132_20101204_235423_raw.all.mb56.gz 20.41MB Simrad multibeam vendor format
0133_20101205_005423_raw.all.mb56.gz 20.69MB Simrad multibeam vendor format
0134_20101205_015423_raw.all.mb56.gz 19.20MB Simrad multibeam vendor format
0135_20101205_025423_raw.all.mb56.gz 15.97MB Simrad multibeam vendor format
0136_20101205_035423_raw.all.mb56.gz 14.35MB Simrad multibeam vendor format
0137_20101205_045423_raw.all.mb56.gz 14.25MB Simrad multibeam vendor format
0138_20101205_055423_raw.all.mb56.gz 13.65MB Simrad multibeam vendor format
0139_20101205_065423_raw.all.mb56.gz 12.74MB Simrad multibeam vendor format
0140_20101205_075423_raw.all.mb56.gz 11.06MB Simrad multibeam vendor format
0141_20101205_085423_raw.all.mb56.gz 10.98MB Simrad multibeam vendor format
0142_20101205_095423_raw.all.mb56.gz 11.08MB Simrad multibeam vendor format
0143_20101205_105423_raw.all.mb56.gz 11.03MB Simrad multibeam vendor format
0144_20101205_115423_raw.all.mb56.gz 10.93MB Simrad multibeam vendor format
0145_20101205_125423_raw.all.mb56.gz 10.75MB Simrad multibeam vendor format
0146_20101205_135423_raw.all.mb56.gz 10.75MB Simrad multibeam vendor format
0147_20101205_145423_raw.all.mb56.gz 11.25MB Simrad multibeam vendor format
0148_20101205_155423_raw.all.mb56.gz 11.51MB Simrad multibeam vendor format
0149_20101205_165423_raw.all.mb56.gz 11.62MB Simrad multibeam vendor format
0150_20101205_175423_raw.all.mb56.gz 506.0KB Simrad multibeam vendor format
0150_20101205_175906_raw.all.mb56.gz 150.8KB Simrad multibeam vendor format
0151_20101205_180924_raw.all.mb56.gz 12.12MB Simrad multibeam vendor format
0152_20101205_190924_raw.all.mb56.gz 11.09MB Simrad multibeam vendor format
0153_20101205_200924_raw.all.mb56.gz 9.16MB Simrad multibeam vendor format
0154_20101205_210924_raw.all.mb56.gz 9.27MB Simrad multibeam vendor format
0155_20101205_220924_raw.all.mb56.gz 9.47MB Simrad multibeam vendor format
0156_20101205_230924_raw.all.mb56.gz 10.78MB Simrad multibeam vendor format
0157_20101206_000924_raw.all.mb56.gz 14.49MB Simrad multibeam vendor format
0158_20101206_010924_raw.all.mb56.gz 19.25MB Simrad multibeam vendor format
0159_20101206_020924_raw.all.mb56.gz 8.44MB Simrad multibeam vendor format
0160_20101206_024832_raw.all.mb56.gz 12.29MB Simrad multibeam vendor format
0161_20101206_034832_raw.all.mb56.gz 11.87MB Simrad multibeam vendor format
0162_20101206_044832_raw.all.mb56.gz 12.68MB Simrad multibeam vendor format
0163_20101206_054832_raw.all.mb56.gz 13.45MB Simrad multibeam vendor format
0164_20101206_064832_raw.all.mb56.gz 11.81MB Simrad multibeam vendor format
0165_20101206_074832_raw.all.mb56.gz 8.65MB Simrad multibeam vendor format
0166_20101206_084832_raw.all.mb56.gz 8.50MB Simrad multibeam vendor format
0167_20101206_094832_raw.all.mb56.gz 8.50MB Simrad multibeam vendor format
0168_20101206_104832_raw.all.mb56.gz 8.51MB Simrad multibeam vendor format
0169_20101206_114832_raw.all.mb56.gz 8.54MB Simrad multibeam vendor format
0170_20101206_124832_raw.all.mb56.gz 8.50MB Simrad multibeam vendor format
0171_20101206_134832_raw.all.mb56.gz 8.55MB Simrad multibeam vendor format
0172_20101206_144832_raw.all.mb56.gz 8.31MB Simrad multibeam vendor format
0173_20101206_154832_raw.all.mb56.gz 0.95MB Simrad multibeam vendor format
0174_20101206_160845_raw.all.mb56.gz 8.55MB Simrad multibeam vendor format
0175_20101206_170845_raw.all.mb56.gz 8.64MB Simrad multibeam vendor format
0176_20101206_180845_raw.all.mb56.gz 8.37MB Simrad multibeam vendor format
0177_20101206_190845_raw.all.mb56.gz 8.36MB Simrad multibeam vendor format
0178_20101206_200845_raw.all.mb56.gz 8.35MB Simrad multibeam vendor format
0179_20101206_210845_raw.all.mb56.gz 8.24MB Simrad multibeam vendor format
0180_20101206_220845_raw.all.mb56.gz 8.43MB Simrad multibeam vendor format
0181_20101206_230845_raw.all.mb56.gz 8.50MB Simrad multibeam vendor format
0182_20101207_000845_raw.all.mb56.gz 8.51MB Simrad multibeam vendor format
0183_20101207_010845_raw.all.mb56.gz 8.37MB Simrad multibeam vendor format
0184_20101207_020845_raw.all.mb56.gz 8.33MB Simrad multibeam vendor format
0185_20101207_030845_raw.all.mb56.gz 8.23MB Simrad multibeam vendor format
0186_20101207_040845_raw.all.mb56.gz 8.29MB Simrad multibeam vendor format
0187_20101207_050845_raw.all.mb56.gz 8.24MB Simrad multibeam vendor format
0188_20101207_060845_raw.all.mb56.gz 8.48MB Simrad multibeam vendor format
0189_20101207_070845_raw.all.mb56.gz 8.50MB Simrad multibeam vendor format
0190_20101207_080845_raw.all.mb56.gz 8.34MB Simrad multibeam vendor format
0191_20101207_090845_raw.all.mb56.gz 8.08MB Simrad multibeam vendor format
0192_20101207_100845_raw.all.mb56.gz 8.30MB Simrad multibeam vendor format
0193_20101207_110844_raw.all.mb56.gz 8.30MB Simrad multibeam vendor format
0194_20101207_120844_raw.all.mb56.gz 8.23MB Simrad multibeam vendor format
0195_20101207_130844_raw.all.mb56.gz 8.13MB Simrad multibeam vendor format
0196_20101207_140844_raw.all.mb56.gz 8.33MB Simrad multibeam vendor format
0197_20101207_150844_raw.all.mb56.gz 8.45MB Simrad multibeam vendor format
0198_20101207_160844_raw.all.mb56.gz 8.29MB Simrad multibeam vendor format
0199_20101207_170844_raw.all.mb56.gz 8.25MB Simrad multibeam vendor format
0200_20101207_180844_raw.all.mb56.gz 8.37MB Simrad multibeam vendor format
0201_20101207_190844_raw.all.mb56.gz 8.37MB Simrad multibeam vendor format
0202_20101207_200844_raw.all.mb56.gz 8.35MB Simrad multibeam vendor format
0203_20101207_210844_raw.all.mb56.gz 8.85MB Simrad multibeam vendor format
0204_20101207_220844_raw.all.mb56.gz 8.73MB Simrad multibeam vendor format
0205_20101207_230844_raw.all.mb56.gz 8.65MB Simrad multibeam vendor format
0206_20101208_000844_raw.all.mb56.gz 8.54MB Simrad multibeam vendor format
0207_20101208_010844_raw.all.mb56.gz 8.51MB Simrad multibeam vendor format
0208_20101208_020844_raw.all.mb56.gz 8.50MB Simrad multibeam vendor format
0209_20101208_030844_raw.all.mb56.gz 8.55MB Simrad multibeam vendor format
0210_20101208_040844_raw.all.mb56.gz 8.50MB Simrad multibeam vendor format
0211_20101208_050844_raw.all.mb56.gz 8.48MB Simrad multibeam vendor format
0212_20101208_060844_raw.all.mb56.gz 8.41MB Simrad multibeam vendor format
0213_20101208_070844_raw.all.mb56.gz 8.46MB Simrad multibeam vendor format
0214_20101208_080844_raw.all.mb56.gz 8.47MB Simrad multibeam vendor format
0215_20101208_090844_raw.all.mb56.gz 8.43MB Simrad multibeam vendor format
0216_20101208_100844_raw.all.mb56.gz 8.93MB Simrad multibeam vendor format
0217_20101208_110844_raw.all.mb56.gz 8.80MB Simrad multibeam vendor format
0218_20101208_120844_raw.all.mb56.gz 8.65MB Simrad multibeam vendor format
0219_20101208_130845_raw.all.mb56.gz 8.79MB Simrad multibeam vendor format
0220_20101208_140845_raw.all.mb56.gz 8.77MB Simrad multibeam vendor format
0221_20101208_150845_raw.all.mb56.gz 9.02MB Simrad multibeam vendor format
0222_20101208_160845_raw.all.mb56.gz 4.49MB Simrad multibeam vendor format
0223_20101208_163939_raw.all.mb56.gz 8.45MB Simrad multibeam vendor format
0224_20101208_173939_raw.all.mb56.gz 8.61MB Simrad multibeam vendor format
0225_20101208_183939_raw.all.mb56.gz 8.69MB Simrad multibeam vendor format
0226_20101208_193939_raw.all.mb56.gz 8.61MB Simrad multibeam vendor format
0227_20101208_203939_raw.all.mb56.gz 8.57MB Simrad multibeam vendor format
0228_20101208_213939_raw.all.mb56.gz 8.40MB Simrad multibeam vendor format
0229_20101208_223939_raw.all.mb56.gz 7.01MB Simrad multibeam vendor format
0230_20101209_005943_raw.all.mb56.gz 296.8KB Simrad multibeam vendor format
0231_20101209_014057_raw.all.mb56.gz 8.79MB Simrad multibeam vendor format
0232_20101209_024057_raw.all.mb56.gz 8.72MB Simrad multibeam vendor format
0233_20101209_034057_raw.all.mb56.gz 8.62MB Simrad multibeam vendor format
0234_20101209_044057_raw.all.mb56.gz 8.63MB Simrad multibeam vendor format
0235_20101209_054057_raw.all.mb56.gz 8.65MB Simrad multibeam vendor format
0236_20101209_064057_raw.all.mb56.gz 8.62MB Simrad multibeam vendor format
0237_20101209_074057_raw.all.mb56.gz 8.44MB Simrad multibeam vendor format
0238_20101209_084057_raw.all.mb56.gz 8.34MB Simrad multibeam vendor format
0239_20101209_094057_raw.all.mb56.gz 8.50MB Simrad multibeam vendor format
0240_20101209_104057_raw.all.mb56.gz 8.44MB Simrad multibeam vendor format
0241_20101209_114057_raw.all.mb56.gz 8.83MB Simrad multibeam vendor format
0242_20101209_124057_raw.all.mb56.gz 8.58MB Simrad multibeam vendor format
0243_20101209_134057_raw.all.mb56.gz 8.46MB Simrad multibeam vendor format
0244_20101209_144057_raw.all.mb56.gz 8.39MB Simrad multibeam vendor format
0245_20101209_154057_raw.all.mb56.gz 8.55MB Simrad multibeam vendor format
0246_20101209_164057_raw.all.mb56.gz 8.71MB Simrad multibeam vendor format
0247_20101209_174057_raw.all.mb56.gz 8.70MB Simrad multibeam vendor format
0248_20101209_184057_raw.all.mb56.gz 8.63MB Simrad multibeam vendor format
0249_20101209_194057_raw.all.mb56.gz 8.47MB Simrad multibeam vendor format
0250_20101209_204057_raw.all.mb56.gz 8.23MB Simrad multibeam vendor format
0251_20101209_214057_raw.all.mb56.gz 8.60MB Simrad multibeam vendor format
0252_20101209_224057_raw.all.mb56.gz 8.90MB Simrad multibeam vendor format
0253_20101209_234057_raw.all.mb56.gz 8.57MB Simrad multibeam vendor format
0254_20101210_004057_raw.all.mb56.gz 8.00MB Simrad multibeam vendor format
0255_20101210_014057_raw.all.mb56.gz 8.41MB Simrad multibeam vendor format
0256_20101210_024057_raw.all.mb56.gz 8.71MB Simrad multibeam vendor format
0257_20101210_034056_raw.all.mb56.gz 8.56MB Simrad multibeam vendor format
0258_20101210_044056_raw.all.mb56.gz 8.65MB Simrad multibeam vendor format
0259_20101210_054056_raw.all.mb56.gz 8.41MB Simrad multibeam vendor format
0260_20101210_064056_raw.all.mb56.gz 8.37MB Simrad multibeam vendor format
0261_20101210_074056_raw.all.mb56.gz 8.51MB Simrad multibeam vendor format
0262_20101210_084056_raw.all.mb56.gz 8.56MB Simrad multibeam vendor format
0263_20101210_094056_raw.all.mb56.gz 8.51MB Simrad multibeam vendor format
0264_20101210_104056_raw.all.mb56.gz 8.54MB Simrad multibeam vendor format
0265_20101210_114056_raw.all.mb56.gz 8.60MB Simrad multibeam vendor format
0266_20101210_124056_raw.all.mb56.gz 8.45MB Simrad multibeam vendor format
0267_20101210_134056_raw.all.mb56.gz 8.40MB Simrad multibeam vendor format
0268_20101210_144056_raw.all.mb56.gz 9.01MB Simrad multibeam vendor format
0269_20101210_154056_raw.all.mb56.gz 8.99MB Simrad multibeam vendor format
0270_20101210_164056_raw.all.mb56.gz 9.01MB Simrad multibeam vendor format
0271_20101210_174056_raw.all.mb56.gz 8.58MB Simrad multibeam vendor format
0272_20101210_184056_raw.all.mb56.gz 8.30MB Simrad multibeam vendor format
0273_20101210_194056_raw.all.mb56.gz 8.62MB Simrad multibeam vendor format
0274_20101210_204056_raw.all.mb56.gz 8.51MB Simrad multibeam vendor format
0275_20101210_214056_raw.all.mb56.gz 8.54MB Simrad multibeam vendor format
0276_20101210_224056_raw.all.mb56.gz 8.78MB Simrad multibeam vendor format
0277_20101210_234056_raw.all.mb56.gz 8.55MB Simrad multibeam vendor format
0278_20101211_004056_raw.all.mb56.gz 8.65MB Simrad multibeam vendor format
0279_20101211_014056_raw.all.mb56.gz 8.29MB Simrad multibeam vendor format
0280_20101211_024056_raw.all.mb56.gz 8.43MB Simrad multibeam vendor format
0281_20101211_034056_raw.all.mb56.gz 8.28MB Simrad multibeam vendor format
0282_20101211_044056_raw.all.mb56.gz 8.52MB Simrad multibeam vendor format
0283_20101211_054056_raw.all.mb56.gz 8.37MB Simrad multibeam vendor format
0284_20101211_064056_raw.all.mb56.gz 8.53MB Simrad multibeam vendor format
0285_20101211_074056_raw.all.mb56.gz 8.11MB Simrad multibeam vendor format
0286_20101211_084056_raw.all.mb56.gz 8.21MB Simrad multibeam vendor format
0287_20101211_094056_raw.all.mb56.gz 8.60MB Simrad multibeam vendor format
0288_20101211_104056_raw.all.mb56.gz 8.13MB Simrad multibeam vendor format
0289_20101211_114056_raw.all.mb56.gz 8.37MB Simrad multibeam vendor format
0290_20101211_124056_raw.all.mb56.gz 8.52MB Simrad multibeam vendor format
0291_20101211_134056_raw.all.mb56.gz 8.37MB Simrad multibeam vendor format
0292_20101211_144056_raw.all.mb56.gz 8.31MB Simrad multibeam vendor format
0293_20101211_154056_raw.all.mb56.gz 8.47MB Simrad multibeam vendor format
0294_20101211_164056_raw.all.mb56.gz 8.34MB Simrad multibeam vendor format
0295_20101211_174056_raw.all.mb56.gz 8.49MB Simrad multibeam vendor format
0296_20101211_184056_raw.all.mb56.gz 8.51MB Simrad multibeam vendor format
0297_20101211_194056_raw.all.mb56.gz 8.78MB Simrad multibeam vendor format
0298_20101211_204056_raw.all.mb56.gz 8.46MB Simrad multibeam vendor format
0299_20101211_214056_raw.all.mb56.gz 8.19MB Simrad multibeam vendor format
0300_20101211_224056_raw.all.mb56.gz 8.59MB Simrad multibeam vendor format
0301_20101211_234056_raw.all.mb56.gz 8.63MB Simrad multibeam vendor format
0302_20101212_004056_raw.all.mb56.gz 8.62MB Simrad multibeam vendor format
0303_20101212_014056_raw.all.mb56.gz 8.16MB Simrad multibeam vendor format
0304_20101212_024056_raw.all.mb56.gz 8.56MB Simrad multibeam vendor format
0305_20101212_034056_raw.all.mb56.gz 8.32MB Simrad multibeam vendor format
0306_20101212_044056_raw.all.mb56.gz 9.01MB Simrad multibeam vendor format
0307_20101212_054056_raw.all.mb56.gz 8.66MB Simrad multibeam vendor format
0308_20101212_064056_raw.all.mb56.gz 8.55MB Simrad multibeam vendor format
0309_20101212_074056_raw.all.mb56.gz 8.78MB Simrad multibeam vendor format
0310_20101212_084056_raw.all.mb56.gz 8.85MB Simrad multibeam vendor format
0311_20101212_094056_raw.all.mb56.gz 8.59MB Simrad multibeam vendor format
0312_20101212_104056_raw.all.mb56.gz 8.66MB Simrad multibeam vendor format
0313_20101212_114056_raw.all.mb56.gz 8.40MB Simrad multibeam vendor format
0314_20101212_124056_raw.all.mb56.gz 8.65MB Simrad multibeam vendor format
0315_20101212_134055_raw.all.mb56.gz 8.80MB Simrad multibeam vendor format
0316_20101212_144055_raw.all.mb56.gz 8.72MB Simrad multibeam vendor format
0317_20101212_154055_raw.all.mb56.gz 8.20MB Simrad multibeam vendor format
0318_20101212_164055_raw.all.mb56.gz 8.57MB Simrad multibeam vendor format
0319_20101212_174055_raw.all.mb56.gz 9.20MB Simrad multibeam vendor format
0320_20101212_184055_raw.all.mb56.gz 9.15MB Simrad multibeam vendor format
0321_20101212_194055_raw.all.mb56.gz 9.25MB Simrad multibeam vendor format
0322_20101212_204055_raw.all.mb56.gz 9.33MB Simrad multibeam vendor format
0323_20101212_214055_raw.all.mb56.gz 9.53MB Simrad multibeam vendor format
0324_20101212_224055_raw.all.mb56.gz 9.71MB Simrad multibeam vendor format
0325_20101212_234055_raw.all.mb56.gz 9.82MB Simrad multibeam vendor format
0326_20101213_004055_raw.all.mb56.gz 9.47MB Simrad multibeam vendor format
0327_20101213_014055_raw.all.mb56.gz 10.34MB Simrad multibeam vendor format
0328_20101213_024055_raw.all.mb56.gz 8.82MB Simrad multibeam vendor format
0329_20101213_033328_raw.all.mb56.gz 11.32MB Simrad multibeam vendor format
0330_20101213_043327_raw.all.mb56.gz 13.42MB Simrad multibeam vendor format
0331_20101213_053327_raw.all.mb56.gz 10.95MB Simrad multibeam vendor format
0332_20101213_060828_raw.all.mb56.gz 17.22MB Simrad multibeam vendor format
0333_20101213_070828_raw.all.mb56.gz 13.11MB Simrad multibeam vendor format
0334_20101213_080828_raw.all.mb56.gz 12.82MB Simrad multibeam vendor format
0335_20101213_090828_raw.all.mb56.gz 13.73MB Simrad multibeam vendor format
0336_20101213_100828_raw.all.mb56.gz 11.20MB Simrad multibeam vendor format
0337_20101213_110828_raw.all.mb56.gz 13.39MB Simrad multibeam vendor format
0338_20101213_120828_raw.all.mb56.gz 4.29MB Simrad multibeam vendor format
0339_20101213_125149_raw.all.mb56.gz 3.51MB Simrad multibeam vendor format
0340_20101213_144955_raw.all.mb56.gz 10.33MB Simrad multibeam vendor format
0341_20101213_173326_raw.all.mb56.gz 0.63MB Simrad multibeam vendor format
0342_20101213_221854_raw.all.mb56.gz 17.24MB Simrad multibeam vendor format
0343_20101213_231854_raw.all.mb56.gz 18.00MB Simrad multibeam vendor format
0344_20101214_001854_raw.all.mb56.gz 18.41MB Simrad multibeam vendor format
0345_20101214_011854_raw.all.mb56.gz 18.38MB Simrad multibeam vendor format
0346_20101214_021854_raw.all.mb56.gz 18.43MB Simrad multibeam vendor format
0347_20101214_031854_raw.all.mb56.gz 18.19MB Simrad multibeam vendor format
0348_20101214_041854_raw.all.mb56.gz 17.15MB Simrad multibeam vendor format
0349_20101214_051854_raw.all.mb56.gz 17.87MB Simrad multibeam vendor format
0350_20101214_061854_raw.all.mb56.gz 19.82MB Simrad multibeam vendor format
0351_20101214_071854_raw.all.mb56.gz 21.45MB Simrad multibeam vendor format
0352_20101214_081854_raw.all.mb56.gz 22.04MB Simrad multibeam vendor format
0353_20101214_091854_raw.all.mb56.gz 20.38MB Simrad multibeam vendor format
0354_20101214_101854_raw.all.mb56.gz 19.09MB Simrad multibeam vendor format
0355_20101214_111854_raw.all.mb56.gz 16.16MB Simrad multibeam vendor format
0356_20101214_121854_raw.all.mb56.gz 12.66MB Simrad multibeam vendor format
0357_20101214_131854_raw.all.mb56.gz 1.94MB Simrad multibeam vendor format
0358_20101214_153944_raw.all.mb56.gz 12.61MB Simrad multibeam vendor format
0359_20101214_163944_raw.all.mb56.gz 12.44MB Simrad multibeam vendor format
0360_20101214_173944_raw.all.mb56.gz 12.96MB Simrad multibeam vendor format
0361_20101214_183944_raw.all.mb56.gz 3.49MB Simrad multibeam vendor format
0362_20101214_202850_raw.all.mb56.gz 4.52MB Simrad multibeam vendor format
0363_20101215_024242_raw.all.mb56.gz 1.40MB Simrad multibeam vendor format
0364_20101215_075012_raw.all.mb56.gz 12.28MB Simrad multibeam vendor format
0365_20101215_085012_raw.all.mb56.gz 12.04MB Simrad multibeam vendor format
0366_20101215_095012_raw.all.mb56.gz 11.18MB Simrad multibeam vendor format
0367_20101215_105012_raw.all.mb56.gz 13.08MB Simrad multibeam vendor format
0368_20101215_115015_raw.all.mb56.gz 14.26MB Simrad multibeam vendor format
0369_20101215_125015_raw.all.mb56.gz 14.93MB Simrad multibeam vendor format
0370_20101215_135016_raw.all.mb56.gz 13.88MB Simrad multibeam vendor format
0371_20101215_145016_raw.all.mb56.gz 13.67MB Simrad multibeam vendor format
0372_20101215_155016_raw.all.mb56.gz 13.77MB Simrad multibeam vendor format
0373_20101215_165016_raw.all.mb56.gz 13.48MB Simrad multibeam vendor format
0374_20101215_175016_raw.all.mb56.gz 9.99MB Simrad multibeam vendor format
0375_20101215_201405_raw.all.mb56.gz 3.08MB Simrad multibeam vendor format
0376_20101215_233051_raw.all.mb56.gz 14.43MB Simrad multibeam vendor format
0377_20101216_003052_raw.all.mb56.gz 15.57MB Simrad multibeam vendor format
0378_20101216_013052_raw.all.mb56.gz 4.17MB Simrad multibeam vendor format
0379_20101216_014631_raw.all.mb56.gz 14.53MB Simrad multibeam vendor format
0380_20101216_024631_raw.all.mb56.gz 3.94MB Simrad multibeam vendor format
0381_20101216_034949_raw.all.mb56.gz 14.57MB Simrad multibeam vendor format
0382_20101216_044949_raw.all.mb56.gz 15.12MB Simrad multibeam vendor format
0383_20101216_054949_raw.all.mb56.gz 14.42MB Simrad multibeam vendor format
0384_20101216_064949_raw.all.mb56.gz 14.56MB Simrad multibeam vendor format
0385_20101216_074949_raw.all.mb56.gz 14.64MB Simrad multibeam vendor format
0386_20101216_084949_raw.all.mb56.gz 1.00MB Simrad multibeam vendor format
0387_20101216_112146_raw.all.mb56.gz 14.33MB Simrad multibeam vendor format
0388_20101216_122146_raw.all.mb56.gz 13.95MB Simrad multibeam vendor format
0389_20101216_132146_raw.all.mb56.gz 7.28MB Simrad multibeam vendor format
0390_20101216_144914_raw.all.mb56.gz 45.3KB Simrad multibeam vendor format
0391_20101217_014559_raw.all.mb56.gz 13.15MB Simrad multibeam vendor format
0392_20101217_024559_raw.all.mb56.gz 4.36MB Simrad multibeam vendor format
0393_20101217_034106_raw.all.mb56.gz 13.15MB Simrad multibeam vendor format
0394_20101217_044106_raw.all.mb56.gz 12.93MB Simrad multibeam vendor format
0395_20101217_054106_raw.all.mb56.gz 13.56MB Simrad multibeam vendor format
0396_20101217_064106_raw.all.mb56.gz 14.76MB Simrad multibeam vendor format
0397_20101217_074106_raw.all.mb56.gz 14.16MB Simrad multibeam vendor format
0398_20101217_084106_raw.all.mb56.gz 6.35MB Simrad multibeam vendor format
0399_20101217_090819_raw.all.mb56.gz 12.58MB Simrad multibeam vendor format
0400_20101217_100819_raw.all.mb56.gz 12.18MB Simrad multibeam vendor format
0401_20101217_110819_raw.all.mb56.gz 11.93MB Simrad multibeam vendor format
0402_20101217_120819_raw.all.mb56.gz 12.67MB Simrad multibeam vendor format
0403_20101217_130818_raw.all.mb56.gz 12.80MB Simrad multibeam vendor format
0404_20101217_140818_raw.all.mb56.gz 7.81MB Simrad multibeam vendor format
0405_20101217_144530_raw.all.mb56.gz 4.50MB Simrad multibeam vendor format
0406_20101217_224139_raw.all.mb56.gz 14.02MB Simrad multibeam vendor format
0407_20101217_234139_raw.all.mb56.gz 10.43MB Simrad multibeam vendor format
0408_20101218_004139_raw.all.mb56.gz 12.94MB Simrad multibeam vendor format
0409_20101218_014139_raw.all.mb56.gz 5.71MB Simrad multibeam vendor format
0410_20101218_030218_raw.all.mb56.gz 11.47MB Simrad multibeam vendor format
0411_20101218_040218_raw.all.mb56.gz 5.34MB Simrad multibeam vendor format
0412_20101218_133826_raw.all.mb56.gz 4.38MB Simrad multibeam vendor format
0413_20101218_152129_raw.all.mb56.gz 12.78MB Simrad multibeam vendor format
0414_20101218_162129_raw.all.mb56.gz 13.36MB Simrad multibeam vendor format
0415_20101218_172129_raw.all.mb56.gz 13.79MB Simrad multibeam vendor format
0416_20101218_182129_raw.all.mb56.gz 9.72MB Simrad multibeam vendor format
0417_20101218_193044_raw.all.mb56.gz 14.71MB Simrad multibeam vendor format
0418_20101218_203044_raw.all.mb56.gz 14.29MB Simrad multibeam vendor format
0419_20101218_213044_raw.all.mb56.gz 13.42MB Simrad multibeam vendor format
0420_20101218_223044_raw.all.mb56.gz 18.19MB Simrad multibeam vendor format
0421_20101218_233044_raw.all.mb56.gz 16.34MB Simrad multibeam vendor format
0422_20101219_003044_raw.all.mb56.gz 16.00MB Simrad multibeam vendor format
0423_20101219_013044_raw.all.mb56.gz 18.23MB Simrad multibeam vendor format
0424_20101219_023044_raw.all.mb56.gz 18.21MB Simrad multibeam vendor format
0425_20101219_033044_raw.all.mb56.gz 18.76MB Simrad multibeam vendor format
0426_20101219_043044_raw.all.mb56.gz 8.51MB Simrad multibeam vendor format
0427_20101219_060820_raw.all.mb56.gz 18.69MB Simrad multibeam vendor format
0428_20101219_070820_raw.all.mb56.gz 18.43MB Simrad multibeam vendor format
0429_20101219_080820_raw.all.mb56.gz 18.40MB Simrad multibeam vendor format
0430_20101219_090820_raw.all.mb56.gz 17.84MB Simrad multibeam vendor format
0431_20101219_100820_raw.all.mb56.gz 18.63MB Simrad multibeam vendor format
0432_20101219_154434_raw.all.mb56.gz 8.35MB Simrad multibeam vendor format
0433_20101219_191859_raw.all.mb56.gz 18.38MB Simrad multibeam vendor format
0434_20101219_201859_raw.all.mb56.gz 18.33MB Simrad multibeam vendor format
0435_20101219_211859_raw.all.mb56.gz 15.16MB Simrad multibeam vendor format
0436_20101219_225140_raw.all.mb56.gz 18.69MB Simrad multibeam vendor format
0437_20101219_235140_raw.all.mb56.gz 9.46MB Simrad multibeam vendor format
0438_20101220_010903_raw.all.mb56.gz 21.27MB Simrad multibeam vendor format
0439_20101220_020903_raw.all.mb56.gz 23.65MB Simrad multibeam vendor format
0440_20101220_030903_raw.all.mb56.gz 23.50MB Simrad multibeam vendor format
0441_20101220_040903_raw.all.mb56.gz 23.64MB Simrad multibeam vendor format
0442_20101220_050903_raw.all.mb56.gz 23.49MB Simrad multibeam vendor format
0443_20101220_060903_raw.all.mb56.gz 23.92MB Simrad multibeam vendor format
0444_20101220_070903_raw.all.mb56.gz 23.67MB Simrad multibeam vendor format
0445_20101220_080902_raw.all.mb56.gz 23.12MB Simrad multibeam vendor format
0446_20101220_090902_raw.all.mb56.gz 21.63MB Simrad multibeam vendor format
0447_20101220_100902_raw.all.mb56.gz 17.84MB Simrad multibeam vendor format
0448_20101220_114304_raw.all.mb56.gz 19.51MB Simrad multibeam vendor format
0449_20101220_124304_raw.all.mb56.gz 19.39MB Simrad multibeam vendor format
0450_20101220_134304_raw.all.mb56.gz 19.69MB Simrad multibeam vendor format
0451_20101220_144304_raw.all.mb56.gz 19.77MB Simrad multibeam vendor format
0452_20101220_154304_raw.all.mb56.gz 19.19MB Simrad multibeam vendor format
0453_20101220_164304_raw.all.mb56.gz 18.06MB Simrad multibeam vendor format
0454_20101220_174304_raw.all.mb56.gz 17.11MB Simrad multibeam vendor format
0455_20101220_184304_raw.all.mb56.gz 17.71MB Simrad multibeam vendor format
0456_20101220_194304_raw.all.mb56.gz 17.73MB Simrad multibeam vendor format
0457_20101220_204304_raw.all.mb56.gz 18.05MB Simrad multibeam vendor format
0458_20101220_214304_raw.all.mb56.gz 15.74MB Simrad multibeam vendor format
0459_20101220_224304_raw.all.mb56.gz 17.44MB Simrad multibeam vendor format
0460_20101220_234304_raw.all.mb56.gz 16.56MB Simrad multibeam vendor format
0461_20101221_004304_raw.all.mb56.gz 17.98MB Simrad multibeam vendor format
0462_20101221_014304_raw.all.mb56.gz 18.15MB Simrad multibeam vendor format
0463_20101221_063841_raw.all.mb56.gz 1.86MB Simrad multibeam vendor format
0464_20101221_140025_raw.all.mb56.gz 18.43MB Simrad multibeam vendor format
0465_20101221_150025_raw.all.mb56.gz 18.37MB Simrad multibeam vendor format
0466_20101221_160025_raw.all.mb56.gz 19.16MB Simrad multibeam vendor format
0467_20101221_170025_raw.all.mb56.gz 19.93MB Simrad multibeam vendor format
0468_20101221_180025_raw.all.mb56.gz 19.19MB Simrad multibeam vendor format
0469_20101222_012114_raw.all.mb56.gz 19.71MB Simrad multibeam vendor format
0470_20101222_022114_raw.all.mb56.gz 15.68MB Simrad multibeam vendor format
0471_20101222_034739_raw.all.mb56.gz 18.37MB Simrad multibeam vendor format
0472_20101222_044739_raw.all.mb56.gz 18.34MB Simrad multibeam vendor format
0473_20101222_063732_raw.all.mb56.gz 20.46MB Simrad multibeam vendor format
0474_20101222_073732_raw.all.mb56.gz 20.03MB Simrad multibeam vendor format
0475_20101222_083732_raw.all.mb56.gz 19.78MB Simrad multibeam vendor format
0476_20101222_093732_raw.all.mb56.gz 21.37MB Simrad multibeam vendor format
0477_20101222_103732_raw.all.mb56.gz 21.18MB Simrad multibeam vendor format
0478_20101222_113732_raw.all.mb56.gz 21.55MB Simrad multibeam vendor format
0479_20101222_123733_raw.all.mb56.gz 21.69MB Simrad multibeam vendor format
0480_20101222_133733_raw.all.mb56.gz 21.57MB Simrad multibeam vendor format
0481_20101222_143733_raw.all.mb56.gz 21.09MB Simrad multibeam vendor format
0482_20101222_153734_raw.all.mb56.gz 20.49MB Simrad multibeam vendor format
0483_20101222_163734_raw.all.mb56.gz 10.91MB Simrad multibeam vendor format
0484_20101222_190841_raw.all.mb56.gz 20.98MB Simrad multibeam vendor format
0485_20101222_200841_raw.all.mb56.gz 21.24MB Simrad multibeam vendor format
0486_20101222_210842_raw.all.mb56.gz 13.08MB Simrad multibeam vendor format
0487_20101222_233618_raw.all.mb56.gz 20.18MB Simrad multibeam vendor format
0488_20101223_062926_raw.all.mb56.gz 20.97MB Simrad multibeam vendor format
0489_20101223_072926_raw.all.mb56.gz 21.23MB Simrad multibeam vendor format
0490_20101223_082926_raw.all.mb56.gz 21.13MB Simrad multibeam vendor format
0491_20101223_092926_raw.all.mb56.gz 20.17MB Simrad multibeam vendor format
0492_20101223_102926_raw.all.mb56.gz 19.79MB Simrad multibeam vendor format
0493_20101223_112926_raw.all.mb56.gz 19.09MB Simrad multibeam vendor format
0494_20101223_122926_raw.all.mb56.gz 7.66MB Simrad multibeam vendor format
0495_20101223_131049_raw.all.mb56.gz 19.42MB Simrad multibeam vendor format
0496_20101223_141049_raw.all.mb56.gz 3.62MB Simrad multibeam vendor format
0497_20101223_145651_raw.all.mb56.gz 18.27MB Simrad multibeam vendor format
0498_20101223_155651_raw.all.mb56.gz 6.37MB Simrad multibeam vendor format
0499_20101223_182618_raw.all.mb56.gz 16.02MB Simrad multibeam vendor format
0500_20101223_192618_raw.all.mb56.gz 4.37MB Simrad multibeam vendor format
0501_20101223_235943_raw.all.mb56.gz 15.84MB Simrad multibeam vendor format
0502_20101224_005943_raw.all.mb56.gz 14.43MB Simrad multibeam vendor format
0503_20101224_015943_raw.all.mb56.gz 2.72MB Simrad multibeam vendor format
0504_20101224_032805_raw.all.mb56.gz 13.22MB Simrad multibeam vendor format
0505_20101224_042805_raw.all.mb56.gz 5.11MB Simrad multibeam vendor format
0506_20101224_054312_raw.all.mb56.gz 13.30MB Simrad multibeam vendor format
0507_20101224_064312_raw.all.mb56.gz 8.49MB Simrad multibeam vendor format
0508_20101224_080836_raw.all.mb56.gz 16.24MB Simrad multibeam vendor format
0509_20101224_090836_raw.all.mb56.gz 16.65MB Simrad multibeam vendor format
0510_20101224_100836_raw.all.mb56.gz 1.29MB Simrad multibeam vendor format
0511_20101224_105843_raw.all.mb56.gz 16.56MB Simrad multibeam vendor format
0512_20101224_115843_raw.all.mb56.gz 16.56MB Simrad multibeam vendor format
0513_20101224_125843_raw.all.mb56.gz 7.56MB Simrad multibeam vendor format
0514_20101224_195329_raw.all.mb56.gz 16.79MB Simrad multibeam vendor format
0515_20101224_205329_raw.all.mb56.gz 17.07MB Simrad multibeam vendor format
0516_20101224_215329_raw.all.mb56.gz 16.29MB Simrad multibeam vendor format
0517_20101224_225329_raw.all.mb56.gz 16.76MB Simrad multibeam vendor format
0518_20101224_235329_raw.all.mb56.gz 16.46MB Simrad multibeam vendor format
0519_20101225_025642_raw.all.mb56.gz 1.84MB Simrad multibeam vendor format
0520_20101225_093227_raw.all.mb56.gz 17.42MB Simrad multibeam vendor format
0521_20101225_103228_raw.all.mb56.gz 17.74MB Simrad multibeam vendor format
0522_20101225_113228_raw.all.mb56.gz 18.41MB Simrad multibeam vendor format
0523_20101225_123228_raw.all.mb56.gz 18.38MB Simrad multibeam vendor format
0524_20101225_133228_raw.all.mb56.gz 18.14MB Simrad multibeam vendor format
0525_20101225_143228_raw.all.mb56.gz 19.42MB Simrad multibeam vendor format
0526_20101225_153228_raw.all.mb56.gz 19.56MB Simrad multibeam vendor format
0527_20101225_163228_raw.all.mb56.gz 13.43MB Simrad multibeam vendor format
0528_20101225_204227_raw.all.mb56.gz 5.05MB Simrad multibeam vendor format
0529_20101225_212053_raw.all.mb56.gz 20.82MB Simrad multibeam vendor format
0530_20101225_222053_raw.all.mb56.gz 21.05MB Simrad multibeam vendor format
0531_20101225_232053_raw.all.mb56.gz 20.93MB Simrad multibeam vendor format
0532_20101226_002053_raw.all.mb56.gz 11.41MB Simrad multibeam vendor format
0533_20101226_040337_raw.all.mb56.gz 3.15MB Simrad multibeam vendor format
0534_20101226_051815_raw.all.mb56.gz 189.1KB Simrad multibeam vendor format
0535_20101226_065301_raw.all.mb56.gz 20.67MB Simrad multibeam vendor format
0536_20101226_075301_raw.all.mb56.gz 20.65MB Simrad multibeam vendor format
0537_20101226_085301_raw.all.mb56.gz 20.11MB Simrad multibeam vendor format
0538_20101226_095301_raw.all.mb56.gz 20.38MB Simrad multibeam vendor format
0539_20101226_105301_raw.all.mb56.gz 20.50MB Simrad multibeam vendor format
0540_20101226_115301_raw.all.mb56.gz 20.43MB Simrad multibeam vendor format
0541_20101226_125301_raw.all.mb56.gz 20.43MB Simrad multibeam vendor format
0542_20101226_135301_raw.all.mb56.gz 20.49MB Simrad multibeam vendor format
0543_20101226_145301_raw.all.mb56.gz 17.01MB Simrad multibeam vendor format
0544_20101226_213845_raw.all.mb56.gz 20.85MB Simrad multibeam vendor format
0545_20101226_223845_raw.all.mb56.gz 18.48MB Simrad multibeam vendor format
0546_20101227_000303_raw.all.mb56.gz 22.93MB Simrad multibeam vendor format
0547_20101227_010303_raw.all.mb56.gz 9.60MB Simrad multibeam vendor format
0548_20101227_020714_raw.all.mb56.gz 23.68MB Simrad multibeam vendor format
0549_20101227_030714_raw.all.mb56.gz 5.61MB Simrad multibeam vendor format
0550_20101227_035742_raw.all.mb56.gz 21.86MB Simrad multibeam vendor format
0551_20101227_045742_raw.all.mb56.gz 15.57MB Simrad multibeam vendor format
0552_20101227_061304_raw.all.mb56.gz 1.27MB Simrad multibeam vendor format
0553_20101227_062118_raw.all.mb56.gz 20.35MB Simrad multibeam vendor format
0554_20101227_072118_raw.all.mb56.gz 20.20MB Simrad multibeam vendor format
0555_20101227_082118_raw.all.mb56.gz 17.54MB Simrad multibeam vendor format
0556_20101227_101553_raw.all.mb56.gz 11.81MB Simrad multibeam vendor format
0557_20101227_111744_raw.all.mb56.gz 18.86MB Simrad multibeam vendor format
0558_20101227_121744_raw.all.mb56.gz 18.97MB Simrad multibeam vendor format
0559_20101227_131744_raw.all.mb56.gz 18.99MB Simrad multibeam vendor format
0560_20101227_141744_raw.all.mb56.gz 19.37MB Simrad multibeam vendor format
0561_20101227_151744_raw.all.mb56.gz 19.69MB Simrad multibeam vendor format
0562_20101227_161744_raw.all.mb56.gz 13.17MB Simrad multibeam vendor format
0563_20101227_193436_raw.all.mb56.gz 18.89MB Simrad multibeam vendor format
0564_20101227_203436_raw.all.mb56.gz 17.72MB Simrad multibeam vendor format
0565_20101227_232752_raw.all.mb56.gz 11.47MB Simrad multibeam vendor format
0566_20101228_055844_raw.all.mb56.gz 18.68MB Simrad multibeam vendor format
0567_20101228_065844_raw.all.mb56.gz 18.21MB Simrad multibeam vendor format
0568_20101228_075844_raw.all.mb56.gz 17.31MB Simrad multibeam vendor format
0569_20101228_085844_raw.all.mb56.gz 16.03MB Simrad multibeam vendor format
0570_20101228_095844_raw.all.mb56.gz 14.75MB Simrad multibeam vendor format
0571_20101228_105844_raw.all.mb56.gz 15.08MB Simrad multibeam vendor format
0572_20101228_115844_raw.all.mb56.gz 14.73MB Simrad multibeam vendor format
0573_20101228_125844_raw.all.mb56.gz 3.35MB Simrad multibeam vendor format
0574_20101228_135330_raw.all.mb56.gz 8.63MB Simrad multibeam vendor format
0575_20101228_152435_raw.all.mb56.gz 13.42MB Simrad multibeam vendor format
0576_20101228_162435_raw.all.mb56.gz 9.17MB Simrad multibeam vendor format
0577_20101228_222805_raw.all.mb56.gz 411.6KB Simrad multibeam vendor format
0578_20101228_225820_raw.all.mb56.gz 13.35MB Simrad multibeam vendor format
0579_20101228_235820_raw.all.mb56.gz 13.51MB Simrad multibeam vendor format
0580_20101229_005820_raw.all.mb56.gz 13.69MB Simrad multibeam vendor format
0581_20101229_023410_raw.all.mb56.gz 13.37MB Simrad multibeam vendor format
0582_20101229_033410_raw.all.mb56.gz 3.89MB Simrad multibeam vendor format
0583_20101229_044651_raw.all.mb56.gz 12.87MB Simrad multibeam vendor format
0584_20101229_054651_raw.all.mb56.gz 13.45MB Simrad multibeam vendor format
0585_20101229_064651_raw.all.mb56.gz 13.82MB Simrad multibeam vendor format
0586_20101229_074651_raw.all.mb56.gz 14.14MB Simrad multibeam vendor format
0587_20101229_084651_raw.all.mb56.gz 13.60MB Simrad multibeam vendor format
0588_20101229_094651_raw.all.mb56.gz 7.55MB Simrad multibeam vendor format
0589_20101229_112042_raw.all.mb56.gz 13.58MB Simrad multibeam vendor format
0590_20101229_122042_raw.all.mb56.gz 5.58MB Simrad multibeam vendor format
0591_20101229_150942_raw.all.mb56.gz 10.94MB Simrad multibeam vendor format
0592_20101229_183101_raw.all.mb56.gz 13.56MB Simrad multibeam vendor format
0593_20101229_193101_raw.all.mb56.gz 13.46MB Simrad multibeam vendor format
0594_20101229_203101_raw.all.mb56.gz 13.06MB Simrad multibeam vendor format
0595_20101229_213101_raw.all.mb56.gz 13.47MB Simrad multibeam vendor format
0596_20101229_223101_raw.all.mb56.gz 13.47MB Simrad multibeam vendor format
0597_20101229_233101_raw.all.mb56.gz 13.90MB Simrad multibeam vendor format
0598_20101230_003101_raw.all.mb56.gz 4.77MB Simrad multibeam vendor format
0599_20101230_022451_raw.all.mb56.gz 13.50MB Simrad multibeam vendor format
0600_20101230_032451_raw.all.mb56.gz 12.59MB Simrad multibeam vendor format
0601_20101230_060334_raw.all.mb56.gz 14.32MB Simrad multibeam vendor format
0602_20101230_070334_raw.all.mb56.gz 15.42MB Simrad multibeam vendor format
0603_20101230_080334_raw.all.mb56.gz 17.10MB Simrad multibeam vendor format
0604_20101230_090334_raw.all.mb56.gz 18.19MB Simrad multibeam vendor format
0605_20101230_100334_raw.all.mb56.gz 18.73MB Simrad multibeam vendor format
0606_20101230_110334_raw.all.mb56.gz 21.11MB Simrad multibeam vendor format
0607_20101230_120334_raw.all.mb56.gz 23.33MB Simrad multibeam vendor format
0608_20101230_130334_raw.all.mb56.gz 24.57MB Simrad multibeam vendor format
0609_20101230_140334_raw.all.mb56.gz 22.78MB Simrad multibeam vendor format
0610_20101230_150333_raw.all.mb56.gz 23.31MB Simrad multibeam vendor format
0611_20101230_160333_raw.all.mb56.gz 22.83MB Simrad multibeam vendor format
0612_20101230_170333_raw.all.mb56.gz 4.08MB Simrad multibeam vendor format
0613_20101230_171415_raw.all.mb56.gz 23.16MB Simrad multibeam vendor format
0614_20101230_181415_raw.all.mb56.gz 24.29MB Simrad multibeam vendor format
0615_20101230_191415_raw.all.mb56.gz 22.88MB Simrad multibeam vendor format
0616_20101230_201415_raw.all.mb56.gz 22.04MB Simrad multibeam vendor format
0617_20101230_211415_raw.all.mb56.gz 20.71MB Simrad multibeam vendor format
0618_20101230_221415_raw.all.mb56.gz 21.10MB Simrad multibeam vendor format
0619_20101230_231415_raw.all.mb56.gz 21.31MB Simrad multibeam vendor format
0620_20101231_001415_raw.all.mb56.gz 23.24MB Simrad multibeam vendor format
0621_20101231_011415_raw.all.mb56.gz 23.55MB Simrad multibeam vendor format
0622_20101231_021415_raw.all.mb56.gz 22.36MB Simrad multibeam vendor format
0623_20101231_031415_raw.all.mb56.gz 20.28MB Simrad multibeam vendor format
0624_20101231_041415_raw.all.mb56.gz 18.43MB Simrad multibeam vendor format
0625_20101231_051415_raw.all.mb56.gz 19.82MB Simrad multibeam vendor format
0626_20101231_061415_raw.all.mb56.gz 22.69MB Simrad multibeam vendor format
0627_20101231_071415_raw.all.mb56.gz 16.59MB Simrad multibeam vendor format
0628_20101231_081415_raw.all.mb56.gz 25.46MB Simrad multibeam vendor format
0629_20101231_091415_raw.all.mb56.gz 25.91MB Simrad multibeam vendor format
0630_20101231_101415_raw.all.mb56.gz 5.39MB Simrad multibeam vendor format
0631_20101231_114153_raw.all.mb56.gz 17.79MB Simrad multibeam vendor format
0632_20101231_124153_raw.all.mb56.gz 16.28MB Simrad multibeam vendor format
0633_20101231_134153_raw.all.mb56.gz 17.42MB Simrad multibeam vendor format
0634_20101231_144153_raw.all.mb56.gz 20.95MB Simrad multibeam vendor format
0635_20101231_154153_raw.all.mb56.gz 12.59MB Simrad multibeam vendor format
0636_20101231_172505_raw.all.mb56.gz 14.04MB Simrad multibeam vendor format
0637_20101231_182505_raw.all.mb56.gz 13.82MB Simrad multibeam vendor format
0638_20101231_192505_raw.all.mb56.gz 16.18MB Simrad multibeam vendor format
0639_20101231_202505_raw.all.mb56.gz 9.62MB Simrad multibeam vendor format
0640_20110101_082603_raw.all.mb56.gz 5.07MB Simrad multibeam vendor format
0641_20110101_135355_raw.all.mb56.gz 3.76MB Simrad multibeam vendor format
0642_20110102_015430_raw.all.mb56.gz 11.63MB Simrad multibeam vendor format
0643_20110102_032823_raw.all.mb56.gz 15.95MB Simrad multibeam vendor format
0644_20110102_042823_raw.all.mb56.gz 2.69MB Simrad multibeam vendor format
0645_20110102_051135_raw.all.mb56.gz 20.47MB Simrad multibeam vendor format
0646_20110102_061135_raw.all.mb56.gz 0.70MB Simrad multibeam vendor format
0647_20110102_064356_raw.all.mb56.gz 20.76MB Simrad multibeam vendor format
0648_20110102_074356_raw.all.mb56.gz 6.28MB Simrad multibeam vendor format
0649_20110102_091216_raw.all.mb56.gz 17.67MB Simrad multibeam vendor format
0650_20110102_101216_raw.all.mb56.gz 17.41MB Simrad multibeam vendor format
0651_20110102_111216_raw.all.mb56.gz 4.49MB Simrad multibeam vendor format
0652_20110102_123657_raw.all.mb56.gz 17.77MB Simrad multibeam vendor format
0653_20110102_133657_raw.all.mb56.gz 8.94MB Simrad multibeam vendor format
0654_20110102_150101_raw.all.mb56.gz 15.02MB Simrad multibeam vendor format
0655_20110102_160101_raw.all.mb56.gz 2.46MB Simrad multibeam vendor format
0656_20110102_163844_raw.all.mb56.gz 15.04MB Simrad multibeam vendor format
0657_20110102_173844_raw.all.mb56.gz 6.77MB Simrad multibeam vendor format
0658_20110102_195513_raw.all.mb56.gz 18.01MB Simrad multibeam vendor format
0659_20110102_205513_raw.all.mb56.gz 17.62MB Simrad multibeam vendor format
0660_20110102_215513_raw.all.mb56.gz 13.32MB Simrad multibeam vendor format
0661_20110103_043440_raw.all.mb56.gz 15.91MB Simrad multibeam vendor format
0662_20110103_053440_raw.all.mb56.gz 4.60MB Simrad multibeam vendor format
0663_20110103_065059_raw.all.mb56.gz 14.25MB Simrad multibeam vendor format
0664_20110103_075059_raw.all.mb56.gz 14.55MB Simrad multibeam vendor format
0665_20110103_085059_raw.all.mb56.gz 14.49MB Simrad multibeam vendor format
0666_20110103_095059_raw.all.mb56.gz 14.61MB Simrad multibeam vendor format
0667_20110103_105059_raw.all.mb56.gz 13.35MB Simrad multibeam vendor format
0668_20110103_115059_raw.all.mb56.gz 14.06MB Simrad multibeam vendor format
0669_20110103_125100_raw.all.mb56.gz 14.91MB Simrad multibeam vendor format
0670_20110103_135059_raw.all.mb56.gz 8.37MB Simrad multibeam vendor format
0671_20110103_181425_raw.all.mb56.gz 17.54MB Simrad multibeam vendor format
0672_20110103_191425_raw.all.mb56.gz 17.41MB Simrad multibeam vendor format
0673_20110103_201425_raw.all.mb56.gz 16.84MB Simrad multibeam vendor format
0674_20110103_211425_raw.all.mb56.gz 16.90MB Simrad multibeam vendor format
0675_20110103_221425_raw.all.mb56.gz 16.97MB Simrad multibeam vendor format
0676_20110103_231425_raw.all.mb56.gz 17.06MB Simrad multibeam vendor format
0677_20110104_001424_raw.all.mb56.gz 18.20MB Simrad multibeam vendor format
0678_20110104_011424_raw.all.mb56.gz 19.64MB Simrad multibeam vendor format
0679_20110104_021424_raw.all.mb56.gz 21.90MB Simrad multibeam vendor format
0680_20110104_031424_raw.all.mb56.gz 23.49MB Simrad multibeam vendor format
0681_20110104_041424_raw.all.mb56.gz 22.70MB Simrad multibeam vendor format
0682_20110104_051424_raw.all.mb56.gz 21.05MB Simrad multibeam vendor format
0683_20110104_061424_raw.all.mb56.gz 19.06MB Simrad multibeam vendor format
0684_20110104_071424_raw.all.mb56.gz 2.13MB Simrad multibeam vendor format
0685_20110104_072135_raw.all.mb56.gz 19.89MB Simrad multibeam vendor format
0686_20110104_082135_raw.all.mb56.gz 18.83MB Simrad multibeam vendor format
0687_20110104_092135_raw.all.mb56.gz 16.58MB Simrad multibeam vendor format
0688_20110104_102135_raw.all.mb56.gz 18.73MB Simrad multibeam vendor format
0689_20110104_112135_raw.all.mb56.gz 18.01MB Simrad multibeam vendor format
0690_20110104_122135_raw.all.mb56.gz 16.39MB Simrad multibeam vendor format
0691_20110104_132135_raw.all.mb56.gz 17.55MB Simrad multibeam vendor format
0692_20110104_142135_raw.all.mb56.gz 18.15MB Simrad multibeam vendor format
0693_20110104_152135_raw.all.mb56.gz 16.98MB Simrad multibeam vendor format
0694_20110104_162135_raw.all.mb56.gz 18.11MB Simrad multibeam vendor format
0695_20110104_172135_raw.all.mb56.gz 18.37MB Simrad multibeam vendor format
0696_20110104_182135_raw.all.mb56.gz 19.28MB Simrad multibeam vendor format
0697_20110104_192135_raw.all.mb56.gz 20.02MB Simrad multibeam vendor format
0698_20110104_202135_raw.all.mb56.gz 19.04MB Simrad multibeam vendor format
0699_20110104_212135_raw.all.mb56.gz 19.57MB Simrad multibeam vendor format
0700_20110104_222135_raw.all.mb56.gz 18.49MB Simrad multibeam vendor format
0701_20110104_232135_raw.all.mb56.gz 17.56MB Simrad multibeam vendor format
0702_20110105_002135_raw.all.mb56.gz 17.63MB Simrad multibeam vendor format
0703_20110105_012135_raw.all.mb56.gz 17.72MB Simrad multibeam vendor format
0704_20110105_022135_raw.all.mb56.gz 18.55MB Simrad multibeam vendor format
0705_20110105_032135_raw.all.mb56.gz 18.89MB Simrad multibeam vendor format
0706_20110105_042135_raw.all.mb56.gz 19.55MB Simrad multibeam vendor format
0707_20110105_052135_raw.all.mb56.gz 23.02MB Simrad multibeam vendor format
0708_20110105_062135_raw.all.mb56.gz 23.02MB Simrad multibeam vendor format
0709_20110105_072135_raw.all.mb56.gz 20.48MB Simrad multibeam vendor format
0710_20110105_082135_raw.all.mb56.gz 18.70MB Simrad multibeam vendor format
0711_20110105_092135_raw.all.mb56.gz 16.96MB Simrad multibeam vendor format
0712_20110105_102135_raw.all.mb56.gz 17.82MB Simrad multibeam vendor format
0713_20110105_112135_raw.all.mb56.gz 19.25MB Simrad multibeam vendor format
0714_20110105_122139_raw.all.mb56.gz 15.68MB Simrad multibeam vendor format
0715_20110105_132139_raw.all.mb56.gz 14.04MB Simrad multibeam vendor format
0716_20110105_142139_raw.all.mb56.gz 13.44MB Simrad multibeam vendor format
0717_20110105_152139_raw.all.mb56.gz 14.06MB Simrad multibeam vendor format
0718_20110105_162139_raw.all.mb56.gz 12.84MB Simrad multibeam vendor format
0719_20110105_170851_raw.all.mb56.gz 17.60MB Simrad multibeam vendor format
0720_20110105_180851_raw.all.mb56.gz 17.71MB Simrad multibeam vendor format
0721_20110105_190851_raw.all.mb56.gz 2.86MB Simrad multibeam vendor format
0722_20110105_233818_raw.all.mb56.gz 225.3KB Simrad multibeam vendor format
0723_20110105_235100_raw.all.mb56.gz 7.26MB Simrad multibeam vendor format
0724_20110106_001625_raw.all.mb56.gz 16.35MB Simrad multibeam vendor format
0725_20110106_011603_raw.all.mb56.gz 15.70MB Simrad multibeam vendor format
0726_20110106_021603_raw.all.mb56.gz 16.77MB Simrad multibeam vendor format
0727_20110106_031603_raw.all.mb56.gz 17.79MB Simrad multibeam vendor format
0728_20110106_041603_raw.all.mb56.gz 18.49MB Simrad multibeam vendor format
0729_20110106_051603_raw.all.mb56.gz 19.21MB Simrad multibeam vendor format
0730_20110106_061603_raw.all.mb56.gz 19.19MB Simrad multibeam vendor format
0731_20110106_071603_raw.all.mb56.gz 19.14MB Simrad multibeam vendor format
0732_20110106_081603_raw.all.mb56.gz 18.93MB Simrad multibeam vendor format
0733_20110106_091603_raw.all.mb56.gz 19.62MB Simrad multibeam vendor format
0734_20110106_101603_raw.all.mb56.gz 16.68MB Simrad multibeam vendor format
0735_20110106_111603_raw.all.mb56.gz 17.44MB Simrad multibeam vendor format
0736_20110106_121603_raw.all.mb56.gz 17.55MB Simrad multibeam vendor format
0737_20110106_131603_raw.all.mb56.gz 17.23MB Simrad multibeam vendor format
0738_20110106_141603_raw.all.mb56.gz 18.78MB Simrad multibeam vendor format
0739_20110106_151603_raw.all.mb56.gz 19.43MB Simrad multibeam vendor format
0740_20110106_161603_raw.all.mb56.gz 18.24MB Simrad multibeam vendor format
0741_20110106_171603_raw.all.mb56.gz 18.41MB Simrad multibeam vendor format
0742_20110106_181603_raw.all.mb56.gz 17.08MB Simrad multibeam vendor format
0743_20110106_191603_raw.all.mb56.gz 17.56MB Simrad multibeam vendor format
0744_20110106_201603_raw.all.mb56.gz 13.75MB Simrad multibeam vendor format
0745_20110106_211603_raw.all.mb56.gz 10.90MB Simrad multibeam vendor format
0746_20110106_221603_raw.all.mb56.gz 10.94MB Simrad multibeam vendor format
0747_20110106_231603_raw.all.mb56.gz 11.58MB Simrad multibeam vendor format
0748_20110107_001603_raw.all.mb56.gz 12.33MB Simrad multibeam vendor format
0749_20110107_011603_raw.all.mb56.gz 1.32MB Simrad multibeam vendor format
0750_20110107_032809_raw.all.mb56.gz 13.67MB Simrad multibeam vendor format
0751_20110107_042809_raw.all.mb56.gz 11.27MB Simrad multibeam vendor format
0752_20110107_052018_raw.all.mb56.gz 12.01MB Simrad multibeam vendor format
0753_20110107_062018_raw.all.mb56.gz 16.89MB Simrad multibeam vendor format
0754_20110107_072018_raw.all.mb56.gz 17.43MB Simrad multibeam vendor format
0755_20110107_082018_raw.all.mb56.gz 18.34MB Simrad multibeam vendor format
0756_20110107_092018_raw.all.mb56.gz 9.95MB Simrad multibeam vendor format
0757_20110107_141427_raw.all.mb56.gz 16.22MB Simrad multibeam vendor format
0758_20110107_151427_raw.all.mb56.gz 17.16MB Simrad multibeam vendor format
0759_20110107_161427_raw.all.mb56.gz 13.15MB Simrad multibeam vendor format
0760_20110107_171427_raw.all.mb56.gz 11.40MB Simrad multibeam vendor format
0761_20110107_181427_raw.all.mb56.gz 12.31MB Simrad multibeam vendor format
0762_20110107_191427_raw.all.mb56.gz 14.06MB Simrad multibeam vendor format
0763_20110107_201427_raw.all.mb56.gz 14.02MB Simrad multibeam vendor format
0764_20110107_211427_raw.all.mb56.gz 14.70MB Simrad multibeam vendor format
0765_20110107_221427_raw.all.mb56.gz 12.57MB Simrad multibeam vendor format
0766_20110107_231427_raw.all.mb56.gz 12.75MB Simrad multibeam vendor format
0767_20110108_001427_raw.all.mb56.gz 17.15MB Simrad multibeam vendor format
0768_20110108_011427_raw.all.mb56.gz 16.65MB Simrad multibeam vendor format
0769_20110108_021427_raw.all.mb56.gz 16.21MB Simrad multibeam vendor format
0770_20110108_031427_raw.all.mb56.gz 15.86MB Simrad multibeam vendor format
0771_20110108_041427_raw.all.mb56.gz 14.38MB Simrad multibeam vendor format
0772_20110108_051427_raw.all.mb56.gz 11.63MB Simrad multibeam vendor format
0773_20110108_061427_raw.all.mb56.gz 11.21MB Simrad multibeam vendor format
0774_20110108_071427_raw.all.mb56.gz 10.48MB Simrad multibeam vendor format
0775_20110108_081427_raw.all.mb56.gz 9.90MB Simrad multibeam vendor format
0776_20110108_091427_raw.all.mb56.gz 9.85MB Simrad multibeam vendor format
0777_20110108_101427_raw.all.mb56.gz 9.90MB Simrad multibeam vendor format
0778_20110108_111427_raw.all.mb56.gz 9.77MB Simrad multibeam vendor format
0779_20110108_121427_raw.all.mb56.gz 11.12MB Simrad multibeam vendor format
0780_20110108_131426_raw.all.mb56.gz 10.46MB Simrad multibeam vendor format
0781_20110108_141426_raw.all.mb56.gz 11.76MB Simrad multibeam vendor format
0782_20110108_151426_raw.all.mb56.gz 12.61MB Simrad multibeam vendor format
0783_20110108_161426_raw.all.mb56.gz 13.62MB Simrad multibeam vendor format
0784_20110108_171426_raw.all.mb56.gz 122.3KB Simrad multibeam vendor format
0785_20110108_183114_raw.all.mb56.gz 13.72MB Simrad multibeam vendor format
0786_20110108_193114_raw.all.mb56.gz 13.17MB Simrad multibeam vendor format
0787_20110108_203114_raw.all.mb56.gz 13.48MB Simrad multibeam vendor format
0788_20110108_213114_raw.all.mb56.gz 13.21MB Simrad multibeam vendor format
0789_20110108_223114_raw.all.mb56.gz 13.78MB Simrad multibeam vendor format
0790_20110108_233114_raw.all.mb56.gz 3.92MB Simrad multibeam vendor format
0791_20110109_040347_raw.all.mb56.gz 14.26MB Simrad multibeam vendor format
0792_20110109_050347_raw.all.mb56.gz 13.97MB Simrad multibeam vendor format
0793_20110109_060347_raw.all.mb56.gz 14.27MB Simrad multibeam vendor format
0794_20110109_070347_raw.all.mb56.gz 14.18MB Simrad multibeam vendor format
0795_20110109_080347_raw.all.mb56.gz 13.97MB Simrad multibeam vendor format
0796_20110109_090347_raw.all.mb56.gz 14.80MB Simrad multibeam vendor format
0797_20110109_100347_raw.all.mb56.gz 14.07MB Simrad multibeam vendor format
0798_20110109_110347_raw.all.mb56.gz 11.43MB Simrad multibeam vendor format
0799_20110109_120347_raw.all.mb56.gz 11.63MB Simrad multibeam vendor format
0800_20110109_130347_raw.all.mb56.gz 10.05MB Simrad multibeam vendor format
0801_20110109_140347_raw.all.mb56.gz 9.98MB Simrad multibeam vendor format
0802_20110109_150347_raw.all.mb56.gz 9.96MB Simrad multibeam vendor format
0803_20110109_160347_raw.all.mb56.gz 9.52MB Simrad multibeam vendor format
0804_20110109_170347_raw.all.mb56.gz 9.28MB Simrad multibeam vendor format
0805_20110109_180347_raw.all.mb56.gz 9.29MB Simrad multibeam vendor format
0806_20110109_190347_raw.all.mb56.gz 9.47MB Simrad multibeam vendor format
0807_20110109_200347_raw.all.mb56.gz 9.41MB Simrad multibeam vendor format
0808_20110109_210347_raw.all.mb56.gz 9.33MB Simrad multibeam vendor format
0809_20110109_220347_raw.all.mb56.gz 9.13MB Simrad multibeam vendor format
0810_20110109_230347_raw.all.mb56.gz 9.26MB Simrad multibeam vendor format
0811_20110110_000347_raw.all.mb56.gz 9.17MB Simrad multibeam vendor format
0812_20110110_010347_raw.all.mb56.gz 9.29MB Simrad multibeam vendor format
0813_20110110_020347_raw.all.mb56.gz 9.17MB Simrad multibeam vendor format
0814_20110110_030347_raw.all.mb56.gz 9.02MB Simrad multibeam vendor format
0815_20110110_040347_raw.all.mb56.gz 8.95MB Simrad multibeam vendor format
0816_20110110_050347_raw.all.mb56.gz 8.93MB Simrad multibeam vendor format
0817_20110110_060347_raw.all.mb56.gz 9.05MB Simrad multibeam vendor format
0818_20110110_070347_raw.all.mb56.gz 9.08MB Simrad multibeam vendor format
0819_20110110_080347_raw.all.mb56.gz 9.06MB Simrad multibeam vendor format
0820_20110110_090347_raw.all.mb56.gz 9.07MB Simrad multibeam vendor format
0821_20110110_100347_raw.all.mb56.gz 8.79MB Simrad multibeam vendor format
0822_20110110_110347_raw.all.mb56.gz 9.03MB Simrad multibeam vendor format
0823_20110110_120347_raw.all.mb56.gz 8.83MB Simrad multibeam vendor format
0824_20110110_130347_raw.all.mb56.gz 9.10MB Simrad multibeam vendor format
0825_20110110_140347_raw.all.mb56.gz 8.97MB Simrad multibeam vendor format
0826_20110110_150347_raw.all.mb56.gz 8.81MB Simrad multibeam vendor format
0827_20110110_160347_raw.all.mb56.gz 8.95MB Simrad multibeam vendor format
0828_20110110_170347_raw.all.mb56.gz 8.88MB Simrad multibeam vendor format
0829_20110110_180347_raw.all.mb56.gz 9.05MB Simrad multibeam vendor format
0830_20110110_190347_raw.all.mb56.gz 9.02MB Simrad multibeam vendor format
0831_20110110_200347_raw.all.mb56.gz 8.87MB Simrad multibeam vendor format
0832_20110110_210347_raw.all.mb56.gz 9.16MB Simrad multibeam vendor format
0833_20110110_220347_raw.all.mb56.gz 9.22MB Simrad multibeam vendor format
0834_20110110_230347_raw.all.mb56.gz 9.17MB Simrad multibeam vendor format
0835_20110111_000347_raw.all.mb56.gz 8.95MB Simrad multibeam vendor format
0836_20110111_010347_raw.all.mb56.gz 9.10MB Simrad multibeam vendor format
0837_20110111_020347_raw.all.mb56.gz 9.25MB Simrad multibeam vendor format
0838_20110111_030347_raw.all.mb56.gz 9.22MB Simrad multibeam vendor format
0839_20110111_040347_raw.all.mb56.gz 9.14MB Simrad multibeam vendor format
0840_20110111_050347_raw.all.mb56.gz 9.22MB Simrad multibeam vendor format
0841_20110111_060347_raw.all.mb56.gz 9.24MB Simrad multibeam vendor format
0842_20110111_070347_raw.all.mb56.gz 9.24MB Simrad multibeam vendor format
0843_20110111_080347_raw.all.mb56.gz 9.19MB Simrad multibeam vendor format
0844_20110111_090346_raw.all.mb56.gz 9.11MB Simrad multibeam vendor format
0845_20110111_100346_raw.all.mb56.gz 9.15MB Simrad multibeam vendor format
0846_20110111_110346_raw.all.mb56.gz 9.26MB Simrad multibeam vendor format
0847_20110111_120346_raw.all.mb56.gz 9.24MB Simrad multibeam vendor format
0848_20110111_130346_raw.all.mb56.gz 9.17MB Simrad multibeam vendor format
0849_20110111_140346_raw.all.mb56.gz 9.20MB Simrad multibeam vendor format
0850_20110111_150346_raw.all.mb56.gz 9.16MB Simrad multibeam vendor format
0851_20110111_160346_raw.all.mb56.gz 9.14MB Simrad multibeam vendor format
0852_20110111_170346_raw.all.mb56.gz 9.21MB Simrad multibeam vendor format
0853_20110111_180346_raw.all.mb56.gz 8.47MB Simrad multibeam vendor format
0854_20110111_190346_raw.all.mb56.gz 9.12MB Simrad multibeam vendor format
0855_20110111_200346_raw.all.mb56.gz 9.26MB Simrad multibeam vendor format
0856_20110111_210346_raw.all.mb56.gz 4.86MB Simrad multibeam vendor format
0857_20110111_213550_raw.all.mb56.gz 8.93MB Simrad multibeam vendor format
0858_20110111_223550_raw.all.mb56.gz 9.04MB Simrad multibeam vendor format
0859_20110111_233550_raw.all.mb56.gz 9.00MB Simrad multibeam vendor format
0860_20110112_003550_raw.all.mb56.gz 8.68MB Simrad multibeam vendor format
0861_20110112_013550_raw.all.mb56.gz 8.99MB Simrad multibeam vendor format
0862_20110112_023550_raw.all.mb56.gz 8.86MB Simrad multibeam vendor format
0863_20110112_033550_raw.all.mb56.gz 9.00MB Simrad multibeam vendor format
0864_20110112_043550_raw.all.mb56.gz 9.13MB Simrad multibeam vendor format
0865_20110112_053550_raw.all.mb56.gz 9.20MB Simrad multibeam vendor format
0866_20110112_063550_raw.all.mb56.gz 9.13MB Simrad multibeam vendor format
0867_20110112_073550_raw.all.mb56.gz 9.20MB Simrad multibeam vendor format
0868_20110112_083550_raw.all.mb56.gz 9.21MB Simrad multibeam vendor format
0869_20110112_093550_raw.all.mb56.gz 9.22MB Simrad multibeam vendor format
0870_20110112_103550_raw.all.mb56.gz 9.21MB Simrad multibeam vendor format
0871_20110112_113554_raw.all.mb56.gz 9.19MB Simrad multibeam vendor format
0872_20110112_123554_raw.all.mb56.gz 9.18MB Simrad multibeam vendor format
0873_20110112_133554_raw.all.mb56.gz 9.18MB Simrad multibeam vendor format
0874_20110112_143555_raw.all.mb56.gz 9.18MB Simrad multibeam vendor format
0875_20110112_153555_raw.all.mb56.gz 9.20MB Simrad multibeam vendor format
0876_20110112_163555_raw.all.mb56.gz 9.16MB Simrad multibeam vendor format
0877_20110112_173555_raw.all.mb56.gz 9.16MB Simrad multibeam vendor format
0878_20110112_183555_raw.all.mb56.gz 9.09MB Simrad multibeam vendor format
0879_20110112_193555_raw.all.mb56.gz 9.03MB Simrad multibeam vendor format
0880_20110112_203555_raw.all.mb56.gz 6.26MB Simrad multibeam vendor format
0881_20110112_211722_raw.all.mb56.gz 9.07MB Simrad multibeam vendor format
0882_20110112_221723_raw.all.mb56.gz 9.09MB Simrad multibeam vendor format
0883_20110112_231723_raw.all.mb56.gz 9.20MB Simrad multibeam vendor format

Metadata Files: 3

Files File Size Description
NBP1005_Multibeam.xml NGDC created ISO metadata
NBP1005.xml 53.2KB XML metadata file
mb_bag_info.tar.gz 24.5KB Additional cruise information